Location: Branche des Alpilles
(43.6087°N, 4.6976°E)
Time: 10:26:36
(UTC+00:00)

FENGYUN 1C DEB - Pass Details

Date: 01 July 2021
Orbit: 782 x 878 km, 99.7° (Epoch: 28 July)

Event Time Altitude Azimuth Distance (km) Brightness Sun altitude
Exits shadow 02:11:12 24° 213° (SSW) 1,592 ? -15.3°
Maximum altitude 02:13:34 36° 261° (W) 1,231 ? -15.1°
Drops below altitude 10° 02:18:19 10° 328° (NNW) 2,350 ? -14.6°
Sets 02:20:49 0° 337° (NNW) 3,280 ? -14.3°
